Regional Weather Roundup
Issued by NWS Cleveland, OH

Home | Current Version | Previous Version | Graphics & Text | Print | Product List | Glossary On
Versions: 1 2 3 4 5 6 7 8 9 10 11 12 13 14 15 16 17 18 19 20 21 22 23 24 25 26 27 28 29 30 31 32 33 34 35 36 37 38 39 40 41 42 43 44 45 46 47 48 49 50
000
ASUS41 KCLE 220002
RWRCLE
OHIO REGIONAL WEATHER ROUNDUP
NATIONAL WEATHER SERVICE CLEVELAND, OH
700 PM EST SAT JAN 21 2017

NOTE: "FAIR" INDICATES FEW OR NO CLOUDS BELOW 12,000 FEET WITH NO
SIGNIFICANT WEATHER AND/OR OBSTRUCTIONS TO VISIBILITY.

OHZ001>008-015>018-024>027-034-035-043-044-220100-
   NORTHWEST OHIO

CITY           SKY/WX    TMP DP  RH WIND       PRES   REMARKS
DEFIANCE       CLEAR     54  49  83 SE5       29.59S
FINDLAY        MOCLDY    55  49  80 SE9       29.61R
TOLEDO EXPRESS CLEAR     54  52  93 SE5       29.60R
TOLEDO EXEC    PTCLDY    52  51  97 SE7       29.62R
LIMA           CLOUDY    54  51  90 S9        29.62R
$$

OHZ009>014-019>023-028>033-038-089-220100-
   NORTHEAST OHIO

CITY           SKY/WX    TMP DP  RH WIND       PRES   REMARKS
CLE-HOPKINS    CLOUDY    58  50  75 S9        29.68S
CLE-LAKEFRONT  CLOUDY    59  51  75 SE12      29.65R
CUY CO. ARPT   MOCLDY    59  52  77 S12       29.68R
LORAIN-ELYRIA  CLOUDY    56  49  77 S10       29.66R
ASHTABULA      CLOUDY    56  51  84 S7        29.70R
AKRON-CANTON   LGT RAIN  55  49  80 SE8       29.69S
WOOSTER        CLOUDY    53  49  86 SE6       29.68F
MANSFIELD      CLOUDY    55  51  86 SE8       29.67R
YOUNGSTOWN     LGT RAIN  56  50  80 W6        29.71R
$$

OHZ042-051>053-060>062-070>072-077>081-220100-
  SOUTHWEST OHIO

CITY           SKY/WX    TMP DP  RH WIND       PRES   REMARKS
CINC-COVINGTON CLOUDY    57  53  86 S7        29.62S
CINC-LUNKEN    CLOUDY    59  54  83 CALM      29.63S
HAMILTON       CLOUDY    60  54  80 CALM      29.63S
DAYTON         CLOUDY    54  51  90 S7        29.63S
WRIGHT-PAT AFB NOT AVBL
DAYTON GENERAL CLOUDY    57  52  83 S6        29.62S
WILMINGTON     CLOUDY    55  52  89 S7        29.64S
$$

OHZ036-037-039>041-045>050-054>059-063>069-073>076-082>088-220100-
  CENTRAL AND SOUTHEAST OHIO

CITY           SKY/WX    TMP DP  RH WIND       PRES   REMARKS
COLUMBUS       CLOUDY    59  50  72 SE5       29.66S
OSU AIRPORT    CLOUDY    57  52  83 SE5       29.66R
BOLTON FIELD   CLOUDY    55  52  88 S7        29.67R
RICKENBACK AFB   N/A     55  51  87 S6        29.66S
NEWARK         LGT RAIN  53  50  89 CALM      29.67R
MARION         CLOUDY    55  50  83 S10       29.65R
LANCASTER      CLOUDY    58  50  75 S5        29.67S
ZANESVILLE     CLOUDY    58  50  75 SE6       29.69S
NEW PHILLY     NOT AVBL
$$



USA.gov is the U.S. government's official web portal to all federal, state and local government web resources and services.